Weather in Beryozovka

Russia / Perm Krai     57°36′27″N   57°18′21″E
temp.,
°C
wind,
m/s
gust,
m/s
humid.,
%
clouds,
%
prec.,
mm/h
press.,
hPa
HPBL,
m
27 february, sat
sat2723:00−21se348656 0.0 102165
02:00−21se478966 0.0 1018114
05:00−21ese599343 0.0 1016153
08:00−21ese51090100 0.0 1013180
11:00−18ese6988100 0.0 1011289
14:00−14ese61086100 0.0 1009498
17:00−12e61093100 0.3 1009719
20:00−17e71193100 0.3 1009527
28 february, sun
sun2823:00−18e61193100 0.4 1009476
02:00−18e61191100 0.0 1008423
05:00−17ene61294100 0.1 1008476
08:00−17ene61194100 0.2 1008488
11:00−17ene71193100 0.5 1008537
14:00−15ene61092100 0.3 1009592
17:00−14ene6993100 0.6 1010587
20:00−17ene51094100 0.3 1012467
1 march, mon
mon123:00−19ene499493 0.4 1014355
02:00−21ne469483 0.0 101695
05:00−22nne349481 0.0 101771
08:00−23ne349565 0.0 101967
11:00−20ne349245 0.0 1020236
14:00−15nne248552 0.0 1019425
17:00−13nw129176 0.0 101988
20:00−18nw129797 0.0 102020
2 march, tue
tue223:00−19ssw1110092 0.0 102020
02:00−21sw2210071 0.0 101820
05:00−22ssw239964 0.0 101721
08:00−23s349953 0.0 101557
11:00−18ssw589474 0.0 1013321
14:00−15s61090100 0.0 1011478
17:00−13s61187100 0.0 1009550
20:00−14s51193100 0.1 1008491
3 march, wed
wed323:00−14ssw41095100 0.5 1007517
02:00−15s4995100 0.4 1006464
05:00−16s3896100 0.7 1005333
08:00−16sse3696100 0.2 1004229
11:00−14s3492100 0.4 1004330
14:00−11sse2290100 0.4 1003374
17:00−10nne1192100 0.7 1003180
20:00−12n229699 0.2 100321